Location: ?????
(44.4284°N, 135.2222°E)
Time: 04:27:46
(UTC+00:00)

Milstar 3 - Pass Details

Date: 19 May 2025
Orbit: 1098 x 5147 km, 28.2° (Epoch: 19 June)

Event Time Altitude Azimuth Distance (km) Brightness Sun altitude
Exits shadow 18:06:59 15° 228° (SW) 3,669 4.8 -12.2°
Maximum altitude 18:12:52 26° 183° (S) 2,435 4.2 -11.5°
Drops below altitude 10° 18:18:37 10° 128° (SE) 3,048 5.2 -10.7°
Sets 18:21:33 0° 115° (ESE) 3,913 6.0 -10.3°
